Location: Unspecified
(35.7250°N, 0.0000°E)
Time: 08:19:05
(UTC+00:00)

Vanguard 2 - Pass Details

Date: 18 June 2019
Orbit: 553 x 2938 km, 32.9° (Epoch: 16 July)

Event Time Altitude Azimuth Distance (km) Brightness Sun altitude
Rises 10:53:48 0° 262° (W) 3,860 11.0 70.9°
Reaches altitude 10° 10:56:02 10° 261° (W) 3,137 10.6 71.3°
Maximum altitude 11:04:07 77° 177° (S) 1,738 11.6 72.6°
Drops below altitude 10° 11:18:00 10° 94° (E) 5,119 12.0 74.5°
Sets 11:22:42 0° 94° (E) 6,403 12.4 75.1°
